Regional Weather Roundup
Issued by NWS State College, PA

Home | Current Version | Previous Version | Text Only | Print | Product List | Glossary On
Versions: 1 2 3 4 5 6 7 8 9 10 11 12 13 14 15 16 17 18 19 20 21 22 23 24 25 26 27 28 29 30 31 32 33 34 35 36 37 38 39 40 41 42 43 44 45 46 47 48 49 50
000
ASUS41 KCTP 222003
RWRCTP

REGIONAL WEATHER ROUNDUP
NATIONAL WEATHER SERVICE STATE COLLEGE PA
400 PM EDT TUE JUL 22 2014

Note: "fair" indicates few or no clouds below 12,000 feet with no
significant weather and/or obstructions to visibility.

* = STATION THAT DOES NOT REPORT PRECIPITATION /E.G. RAIN...SNOW...ETC/
    THUNDER OR FOG.

PAZ002>004-007>009-013>016-020>023-029>032-222100-
WESTERN PENNSYLVANIA

CITY           SKY/WX    TMP DP  RH WIND       PRES   REMARKS
ERIE           SUNNY     85  65  51 W6        30.03F
MEADVILLE      NOT AVBL
FRANKLIN*      PTSUNNY   84  66  54 S9        30.11S
NEW CASTLE       N/A     89  70  53 VRB6      30.07F
BEAVER COUNTY  MOSUNNY   86  66  51 S6        30.09F
BUTLER*        SUNNY     88  68  51 SW8       30.10F
PITTSBURGH INT MOSUNNY   87  66  49 S5        30.09F
PITTSBURGH     MOSUNNY   86  66  51 SW9       30.08F
INDIANA*       SUNNY     86  66  51 SW5       30.14S
LATROBE        MOSUNNY   86  70  58 SW7       30.10F
WASHINGTON CO* PTSUNNY   84  70  61 S6        30.10F
$$

PAZ004>006-010>012-017>019-024>028-033>037-041-042-045-046-049>053-222100-
CENTRAL PENNSYLVANIA

CITY           SKY/WX    TMP DP  RH WIND       PRES   REMARKS
BRADFORD       MOSUNNY   83  62  49 W10       30.11F
DUBOIS         MOSUNNY   85  67  54 SW7       30.10F
CLEARFIELD     MOSUNNY   84  69  60 S10G17    30.10F
JOHNSTOWN      CLOUDY    76  67  73 S10       30.16F
ALTOONA        MOSUNNY   82  69  64 S8        30.13F
STATE COLLEGE  MOSUNNY   81  70  69 S8        30.11F
WILLIAMSPORT   MOSUNNY   85  69  58 S8G16     30.06F
SELINSGROVE    SUNNY     85  70  60 S7        30.09F
FT INDIANTOWN  MOSUNNY   84  71  63 VRB3      30.10F
CAPITAL CITY   SUNNY     86  68  54 S13       30.09F
HARRISBURG     MOSUNNY   88  69  53 W8        30.08F
YORK           MOSUNNY   85  69  58 VRB5      30.11F
$$

PAZ038>040-043-044-047-048-054-055-060>062-067>071-222100-
EASTERN PENNSYLVANIA

CITY           SKY/WX    TMP DP  RH WIND       PRES   REMARKS
SCRANTON       MOSUNNY   87  67  51 SW9       30.10F
MOUNT POCONO   PTSUNNY   79  67  66 SW14      30.16F
ALLENTOWN      MOSUNNY   86  69  56 W9        30.10F
QUAKERTOWN*    PTCLDY    86  68  54 S6        30.12F
READING        CLOUDY    84  70  62 SW10      30.09F
LANCASTER      PTSUNNY   84  69  60 S12       30.10F
COATESVILLE    PTCLDY    82  68  61 S5        30.14F
POTTSTOWN      MOSUNNY   85  67  54 SW7       30.12F
BLUE BELL      MOSUNNY   88  70  55 SW9       30.10F
DOYLESTOWN     MOSUNNY   82  68  62 S5        30.10F
WILLOW GROVE   NOT AVBL
NORTH PHILA    PTSUNNY   88  65  46 SW7       30.11F
PHILADELPHIA   MOSUNNY   87  64  46 S10       30.11F
$$


USA.gov is the U.S. government's official web portal to all federal, state and local government web resources and services.